Location: Paris
(48.6709°N, 2.3750°E)
Time: 14:27:37
(UTC+02:00)

NOAA 18 - Pass Details

Date: 29 June 2022
Orbit: 839 x 860 km, 98.9° (Epoch: 13 August)

Event Time Altitude Azimuth Distance (km) Brightness Sun altitude
Exits shadow 01:15:12 - 232° (SW) 3,102 7.9 -17.6°
Reaches altitude 10° 01:18:41 10° 262° (W) 2,485 7.6 -17.7°
Maximum altitude 01:20:02 11° 276° (W) 2,428 7.8 -17.7°
Drops below altitude 10° 01:21:24 10° 290° (WNW) 2,493 8.0 -17.7°
Sets 01:26:05 0° 327° (NNW) 3,443 9.5 -17.8°
